STARLINK-1733, 46564

Orbit data source: Space-Track

STARLINK-1733, 46564 is a payload satellite owned by SpaceX/Seattle (US) in LEO that was launched on Tue, 06 Oct 2020 UTC via an FALCON 9 launch vehicle from the Air Force Eastern Test Range (AFETR). Payload-class satellites include a variety of spacecraft equipped with specific instruments for various scientific and technological missions. These include communications satellites like Starlink; space stations such as the ISS; scientific satellites like the Hubble; Earth observation satellites from companies like Planet Labs, Umbra, and HawkEye 360; GPS; miniature CubeSats for education and research; and military/defense satellites.

Not visible in the next 10 days
Identifier
46564, 2020-070AJ
Orbit
LEO
Country
Flag of USUS
Related business
Manufacturer
SpaceX/Seattle
Mission
Partially operational Commercial Communications
Bus & Motor
STARLINK, Unknown motor
Mass
260 kg wet, ~248 kg dry
Launch date (UTC)
2020-10-06 (6 years ago)
Launch vehicle
FALCON 9
Launch site
Air Force Eastern Test Range (AFETR)
Object type
Payload
Rocket body
Debris
Shape & HBR
Box + 1 Pan, 10.1 m
Radar Cross Section
13.562 m², Large (>1 m²)

Expand to show TLE details & history
Last TLE update: 8 hours ago

TLE from 8 hours ago
0 STARLINK-1733
1 46564U 20070AJ  26123.00002315  .00526110  13093-3  10349-2 0  9992
2 46564  53.0312 193.0249 0011761 359.2681 304.3211 15.99399734  5917
Epoch: 2026-05-03T00:00Z
TLE epoch observation values (Epoch: 2026-05-03T00:00:02.000Z)
Latitude
-41.99619°
Longitude
-70.25465°
Altitude
285.639 km
Speed
7.738 km/s
True Right ascension
10h 02m 39s
True Declination
-41° 48' 47"
Sunlit
Object was in full shadow at epoch
Visualization orbit readout
Latitude
Unknown
Longitude
Unknown
Altitude
Unknown
Speed
Unknown
Apparent Right ascension
Unknown
Apparent Declination
Unknown
Sunlit
N/A
Visualization observer readout
Local Sidereal Time
15:21:50
Azimuth
Unknown
Elevation
Unknown
Doppler factor
Unknown
Orbital elements
Apogee altitude
284.195 km
Perigee altitude
268.542 km
Semi-major axis
6,654.505 km
Eccentricity
0.00118
Inclination
53.0312°
RAAN
193.0249°
Arg. of periapsis
359.2681°
True anomaly
304.2097°
Mean anomaly
304.3211°
Eccentric anomaly
304.26541°
Mean motion
3.99825 °/min
Orbital period
90.04 mins
BSTAR
0.0010349
Loading maneuver chart data...
Computing Atmospheric mass density...

Documentation

Showing up to 5 results
|